Torna al catalogo

FENGYUN 1C DEB

AttivoPO
NORAD 30811·DEBRIS·🇨🇳 China

Lanciato May 10, 1999 da Taiyuan Satellite Launch Center

Loading…

Prossimi Passaggi (prossime 24 ore)

TLE

AggiornatoSource: Space-Track

Epoca: Sep 14, 2026, 11:21 UTC

1 30811U 99025AUV 26257.47343188  .00001003  00000-0  10307-2 0  9995
2 30811  98.7612 274.5367 0278018  45.6115 316.7436 13.62619352966212

Traccia FENGYUN 1C DEB in tempo reale con AllMySat

Download on the App Store